Preview of NWS' New Version of Forecast
This preview is not operational and should not be used for support decisions.

Regional Weather Roundup (RWR)

Issued by Gray - Portland, ME (GYX)

                            
000
ASUS41 KGYX 251705
RWRGYX
WEATHER ROUNDUP FOR MAINE AND NEW HAMPSHIRE
NATIONAL WEATHER SERVICE GRAY ME
100 PM EDT SAT MAY 25 2019

MEZ002-005-006-010-012-015-018-020-021-024-026-027-029-251800-
MAINE
  
CITY           SKY/WX    TMP DP  RH WIND       PRES   REMARKS
PORTLAND       FAIR      70  45  40 E10       30.15F                  
SANFORD        FAIR      70  46  42 E12G17    30.16F                  
BAR HARBOR     FAIR      70  39  32 SE7       30.13F                  
WISCASSET      FAIR      72  43  35 S8        30.15S                  
ROCKLAND       FAIR      67  46  47 S10       30.14F                  
FRYEBURG       FAIR      73  41  31 VRB5      30.14F                  
LEWISTONAUBURN FAIR      71  43  36 W10       30.14F                  
AUGUSTA        FAIR      71  40  32 VRB6      30.14F                  
WATERVILLE     FAIR      71  41  33 VRB3      30.11F                  
BANGOR         CLOUDY    71  39  31 CALM      30.12F                  
GREENVILLE       N/A     65  34  31 SE3       30.11F                  
MILLINOCKET    FAIR      72  37  28 VRB6      30.11F                  
HOULTON        FAIR      70  39  32 CALM      30.08F                  
PRESQUE ISLE   FAIR      69  38  32 VRB6      30.09F                  
FRENCHVILLE    FAIR      71  34  25 VRB5      30.07F                  
CARIBOU        FAIR      70  39  32 MISG      30.07F                  
$$

NHZ002-005-008-009-011-012-014-251800-
NEW HAMPSHIRE
  
CITY           SKY/WX    TMP DP  RH WIND       PRES   REMARKS
PORTSMOUTH     MOSUNNY   69  43  39 SE12      30.15F                  
ROCHESTER      FAIR      73  45  36 VRB5      30.15F                  
NASHUA         FAIR      72  45  37 SE8       30.17F                  
MANCHESTER     PTSUNNY   72  39  30 S9        30.15F                  
CONCORD        FAIR      72  41  32 SW8       30.16F                  
LACONIA        FAIR      69  43  38 SW7       30.16F                  
PLYMOUTH       FAIR      70  42  35 SE6       30.14F                  
BERLIN         FAIR      70  41  34 CALM      30.13F                  
WHITEFIELD     FAIR      69  45  41 VRB7      30.13F                  
JAFFREY        FAIR      69  38  32 MISG      30.18F                  
KEENE          FAIR      70  43  37 SW8       30.15F                  
LEBANON        FAIR      70  41  34 S8        30.14F                  
MT WASHINGTON  PTSUNNY   46  36  66 SW7         N/A                   
$$

VTZ005-007-008-251800-
VERMONT
  
CITY           SKY/WX    TMP DP  RH WIND       PRES   REMARKS
ST JOHNSBURY     N/A     68  39  34 MISG      30.12F                  
MONTPELIER     FAIR      66  45  46 S15       30.17F                  
BURLINGTON     PTSUNNY   68  44  42 SW13G21   30.11F                  
$$

MAZ007-012-024-CTZ003-RIZ002-NYZ038-NYZ072-251800-
SOUTHERN NEW ENGLAND AND NY
  
CITY           SKY/WX    TMP DP  RH WIND       PRES   REMARKS
BOSTON         PTSUNNY   70  47  43 SE14      30.17F                  
WORCESTER      FAIR      68  43  40 VRB7      30.19F                  
NANTUCKET      FAIR      67  48  50 NW10      30.20F                  
PROVIDENCE     FAIR      72  44  36 VRB7      30.19F                  
HARTFORD       FAIR      73  46  38 S12       30.17F                  
ALBANY         PTSUNNY   70  50  49 S12G17    30.15F                  
NEW YORK CITY  PTSUNNY   69  50  50 S12G20    30.23F                  
$$

ANZ081-ANZ082-ANZ150-NHZ014-MEZ023>029-251800-
COASTAL MARINE OBSERVATIONS
  
STATION/POSITION TIME  TEMP    WIND        PRES    WAVE
                       AIR SEA DIR/SP/G            HT/PER
                 (UTC) (F)     (DEG/KT/KT) (MB)    (FT/S)
ISLE OF SHOALS   1600   62     160/  6/  6 1021.8F
JEFFREYS LEDGE   1638      52                N/A     3/ 8
GEORGES BANK BUO 1650   47 45  350/  8/ 10 1022.1R   9/10
$$

.............KEY..............
   WCI - WIND CHILL
   TC  - TEMPERATURE IN CELSIUS
   VSB - VISIBILITY IN MILES
   HX  - HEAT INDEX
   FAIR- INDICATES FEW OR NO CLOUDS BELOW 12,000 FT, WITH NO 
         SIGNIFICANT WEATHER AND/OR OBSTRUCTIONS TO VISIBILITY.